Pueblo, CO

4:23 AM MDT on April 26, 2017 (GMT -0600)
Pueblo Memorial

Weather History for KPUB - April, 2013

Change the Weather History Date:

Monday, April 22, 2013

  Actual Average Record
Temperature  
Mean Temperature 51 °F 52 °F  
Max Temperature 73 °F 69 °F 88 °F (1965)
Min Temperature 28 °F 36 °F 22 °F (1982)
Degree Days  
Heating Degree Days 14 13  
Month to date heating degree days 437 347  
Since 1 July heating degree days 5409 5352  
Cooling Degree Days 0 0  
Month to date cooling degree days 0 0  
Year to date cooling degree days 0 0  
Moisture  
Dew Point 26 °F    
Average Humidity 55    
Maximum Humidity 92    
Minimum Humidity 18    
Precipitation  
Precipitation 0.01 in 0.05 in 1.44 in (2004)
Month to date precipitation 0.18 0.96  
Year to date precipitation 1.08 2.54  
Snow  
Snow 0.20 in 0.20 in 4.20 in (1909)
Month to date snowfall 1.9 3.1  
Since 1 July snowfall 22.3 30.6  
Snow Depth 0.00 in    
Sea Level Pressure  
Sea Level Pressure 30.01 in    
Wind  
Wind Speed 15 mph (NE)    
Max Wind Speed 45 mph    
Max Gust Speed 54 mph    
Visibility 7 miles    
Events Snow    
T = Trace of Precipitation, MM = Missing Value Source: NWS Daily Summary

Daily Weather History Graph

Daily Weather History Graph

Search for Another Location

Airport or City:

Trip Planner

Search our weather history database for the weather conditions in past years. The results will help you decide how hot, cold, wet, or windy it might be!

Date:

Astronomy

Apr. 22, 2013 Rise Set
Actual Time 6:12 AM MDT 7:41 PM MDT
Civil Twilight 5:44 AM MDT 8:09 PM MDT
Nautical Twilight 5:11 AM MDT 8:42 PM MDT
Astronomical Twilight 4:35 AM MDT 9:17 PM MDT
Moon 4:35 PM MDT (4/22) 4:05 AM MDT (4/22)
Length of Visible Light 14h 24m
Length of Day
13h 29m
Waxing Gibbous, 88% of the Moon is Illuminated
Apr 22
Waxing Gibbous
Apr 25
Full
May 2
Last Quarter
May 9
New
May 17
First Quarter

Hourly Weather History & Observations

Time (MDT) Temp. Windchill Dew Point Humidity Pressure Visibility Wind Dir Wind Speed Gust Speed Precip Events Conditions
12:53 AM 45.0 °F 41.2 °F 27.0 °F 49% 29.90 in 10.0 mi West 6.9 mph - N/A   Clear
1:53 AM 41.0 °F 36.4 °F 26.1 °F 55% 29.88 in 10.0 mi North 6.9 mph - N/A   Clear
2:53 AM 41.0 °F 35.8 °F 26.1 °F 55% 29.86 in 10.0 mi North 8.1 mph - N/A   Clear
3:53 AM 37.9 °F 32.1 °F 26.1 °F 62% 29.86 in 10.0 mi NNW 8.1 mph - N/A   Clear
4:53 AM 36.0 °F 30.3 °F 24.1 °F 62% 29.84 in 10.0 mi West 6.9 mph - N/A   Clear
5:53 AM 36.0 °F 31.1 °F 24.1 °F 62% 29.83 in 10.0 mi NW 5.8 mph - N/A   Clear
6:53 AM 39.0 °F 32.8 °F 26.1 °F 60% 29.84 in 10.0 mi West 9.2 mph - N/A   Clear
7:53 AM 46.0 °F 43.1 °F 27.0 °F 47% 29.84 in 10.0 mi West 5.8 mph - N/A   Clear
8:53 AM 55.9 °F - 27.0 °F 33% 29.81 in 10.0 mi South 4.6 mph - N/A   Clear
9:53 AM 62.1 °F - 26.1 °F 25% 29.80 in 10.0 mi North 6.9 mph - N/A   Clear
10:53 AM 64.9 °F - 26.1 °F 23% 29.78 in 10.0 mi West 9.2 mph 16.1 mph N/A   Clear
11:53 AM 68.0 °F - 25.0 °F 20% 29.75 in 10.0 mi West 10.4 mph - N/A   Mostly Cloudy
12:53 PM 69.1 °F - 25.0 °F 19% 29.73 in 10.0 mi Variable 4.6 mph 21.9 mph N/A   Mostly Cloudy
1:50 PM 57.2 °F - 33.8 °F 41% 29.86 in 2.0 mi NNE 41.4 mph 50.6 mph N/A   Haze
1:53 PM 55.9 °F - 33.1 °F 42% 29.80 in 2.0 mi NNE 44.9 mph 52.9 mph N/A   Haze
2:03 PM 55.4 °F - 32.0 °F 41% 29.87 in 3.0 mi NNE 38.0 mph 48.3 mph N/A   Haze
2:26 PM 53.6 °F - 33.8 °F 47% 29.90 in 10.0 mi NNE 34.5 mph 44.9 mph N/A   Overcast
2:53 PM 54.0 °F - 32.0 °F 43% 29.84 in 10.0 mi NNE 41.4 mph 48.3 mph N/A   Mostly Cloudy
3:53 PM 46.9 °F - 28.0 °F 48% 29.92 in 10.0 mi NNE 38.0 mph 50.6 mph N/A   Partly Cloudy
4:53 PM 42.1 °F 30.1 °F 24.1 °F 49% 30.01 in 10.0 mi NNE 38.0 mph 47.2 mph N/A   Mostly Cloudy
5:53 PM 37.9 °F 26.8 °F 21.0 °F 51% 30.09 in 10.0 mi NNE 24.2 mph 34.5 mph N/A   Overcast
6:53 PM 36.0 °F 26.7 °F 19.9 °F 52% 30.17 in 10.0 mi ENE 15.0 mph 25.3 mph N/A   Overcast
7:18 PM 33.8 °F 22.5 °F 23.0 °F 65% 30.17 in 1.8 mi NE 19.6 mph - 0.00 in Snow Light Snow
7:38 PM 32.0 °F 21.6 °F 24.8 °F 75% 30.19 in 2.0 mi ENE 15.0 mph - 0.00 in Snow Light Snow
7:53 PM 30.9 °F 19.8 °F 26.1 °F 82% 30.20 in 2.0 mi East 16.1 mph - 0.00 in Snow Light Snow
8:04 PM 30.2 °F 19.8 °F 26.6 °F 86% 30.21 in 1.8 mi East 13.8 mph - 0.00 in Snow Light Snow
8:15 PM 30.2 °F 20.2 °F 26.6 °F 86% 30.22 in 2.0 mi ENE 12.7 mph - 0.00 in Snow Light Snow
8:29 PM 30.2 °F 18.9 °F 26.6 °F 86% 30.22 in 2.5 mi East 16.1 mph - 0.00 in Snow Light Snow
8:36 PM 28.4 °F 17.0 °F 26.6 °F 93% 30.23 in 3.0 mi ENE 15.0 mph - 0.00 in Snow Light Snow
8:53 PM 28.9 °F 19.8 °F 27.0 °F 92% 30.23 in 4.0 mi East 10.4 mph - 0.00 in Snow Light Snow
9:03 PM 28.4 °F 18.5 °F 26.6 °F 93% 30.24 in 2.0 mi ENE 11.5 mph - 0.01 in Snow Light Snow
9:20 PM 28.4 °F 19.7 °F 26.6 °F 93% 30.25 in 2.5 mi East 9.2 mph - 0.01 in Snow Light Snow
9:30 PM 28.4 °F 19.7 °F 26.6 °F 93% 30.25 in 3.0 mi East 9.2 mph - 0.01 in Snow Light Snow
9:53 PM 28.9 °F 21.9 °F 25.0 °F 85% 30.23 in 10.0 mi East 6.9 mph - 0.01 in   Overcast
10:53 PM 28.0 °F 18.6 °F 24.1 °F 85% 30.22 in 10.0 mi ESE 10.4 mph - N/A   Overcast
11:12 PM 28.4 °F 19.7 °F 23.0 °F 80% 30.25 in 10.0 mi East 9.2 mph - N/A   Overcast
11:53 PM 28.0 °F 18.1 °F 21.9 °F 78% 30.20 in 10.0 mi ENE 11.5 mph - N/A   Overcast